Location: Finkenwalde
(53.3770°N, 14.6418°E)
Time: 05:22:52
(UTC+00:00)

Cosmos 1825 - Pass Details

Date: 05 February 2023
Orbit: 480 x 488 km, 82.5° (Epoch: 24 March)

Event Time Altitude Azimuth Distance (km) Brightness Sun altitude
Rises 17:11:49 0° 182° (S) 2,586 5.9 -12.1°
Reaches altitude 10° 17:13:56 10° 180° (S) 1,709 4.9 -12.4°
Maximum altitude 17:17:39 66° 98° (E) 556 2.1 -13.0°
Drops below altitude 10° 17:21:24 10° 16° (NNE) 1,724 4.6 -13.5°
Enters shadow 17:24:42 -4° 13° (NNE) 3,102 5.9 -14.0°
